YB2NDX-15 Weather Reports


time (UTC)temp
F
wind
direction
speed
knots
gust
knots
rain 1hr
in
rain 24hr
in
rain mn
in
humidity
%
barometer
mb
20260508185351 82 0.0 0.0 0.00 0.00 0.00 1008.2
20260508184344 82 0.0 0.0 0.00 0.00 0.00 1008.3
20260508183338 82 0.0 0.0 0.00 0.00 0.00 1008.2
20260508182331 82 0.0 0.0 0.00 0.00 0.00 1008.1
20260508181324 82 0.0 0.0 0.00 0.00 0.00 1008.0
20260508180318 83 0.0 0.0 0.00 0.00 0.00 1008.1
20260508175312 83 0.0 0.0 0.00 0.00 0.00 1008.0
20260508174305 83 0.0 0.0 0.00 0.00 0.00 1008.2
20260508172253 84 0.0 0.0 0.00 0.00 0.00 1008.5
20260508171246 84 0.0 0.0 0.00 0.00 0.00 1008.6
20260508170240 84 0.0 0.0 0.00 0.00 0.00 1008.7
20260508165234 84 0.0 0.0 0.00 0.00 0.00 1008.8
20260508163221 84 0.0 0.0 0.00 0.00 0.00 1008.8
20260508162215 84 0.0 0.0 0.00 0.00 0.00 1008.9
20260508161208 84 0.0 0.0 0.00 0.00 0.00 1009.0
20260508160202 84 0.0 0.0 0.00 0.00 0.00 1009.0
20260508155155 84 0.0 0.0 0.00 0.00 0.00 1008.9
20260508154149 84 0.0 0.0 0.00 0.00 0.00 1008.9
20260508153143 84 0.0 0.0 0.00 0.00 0.00 1008.8
20260508152136 84 0.0 0.0 0.00 0.00 0.00 1008.9
20260508151129 85 0.0 0.0 0.00 0.00 0.00 1008.9
20260508145117 85 0.0 0.0 0.00 0.00 0.00 1009.2
20260508144111 85 0.0 0.0 0.00 0.00 0.00 1009.1
20260508143104 86 0.0 0.0 0.00 0.00 0.00 1009.0
20260508142058 86 0.0 0.0 0.00 0.00 0.00 1008.9
20260508141227 86 0.0 0.0 0.00 0.00 0.00 1008.8
20260508140220 86 0.0 0.0 0.00 0.00 0.00 1008.7
20260508134207 86 0.0 0.0 0.00 0.00 0.00 1008.6
20260508133201 87 0.0 0.0 0.00 0.00 0.00 1008.4
20260508132154 87 0.0 0.0 0.00 0.00 0.00 1008.3
20260508131148 87 0.0 0.0 0.00 0.00 0.00 1008.1
20260508130142 87 0.0 0.0 0.00 0.00 0.00 1008.0
20260508125135 87 0.0 0.0 0.00 0.00 0.00 1008.0
20260508124128 87 0.0 0.0 0.00 0.00 0.00 1007.9
20260508123122 87 0.0 0.0 0.00 0.00 0.00 1007.8
20260508122115 87 0.0 0.0 0.00 0.00 0.00 1007.6
20260508115056 88 0.0 0.0 0.00 0.00 0.00 1007.3
20260508114049 88 0.0 0.0 0.00 0.00 0.00 1007.2
20260508113043 89 0.0 0.0 0.00 0.00 0.00 1007.0
20260508112037 89 0.0 0.0 0.00 0.00 0.00 1006.8
20260508111031 89 0.0 0.0 0.00 0.00 0.00 1006.6
20260508110024 90 0.0 0.0 0.00 0.00 0.00 1006.3
20260508105018 90 0.0 0.0 0.00 0.00 0.00 1006.2
20260508104012 90 0.0 0.0 0.00 0.00 0.00 1006.2
20260508103006 91 0.0 0.0 0.00 0.00 0.00 1006.1
20260508102000 91 0.0 0.0 0.00 0.00 0.00 1005.9
20260508100954 91 0.0 0.0 0.00 0.00 0.00 1005.8
20260508094959 92 0.0 0.0 0.00 0.00 0.00 1005.6
20260508093952 93 0.0 0.0 0.00 0.00 0.00 1005.6
20260508092945 93 0.0 0.0 0.00 0.00 0.00 1005.5
20260508091939 94 0.0 0.0 0.00 0.00 0.00 1005.5
20260508090933 95 0.0 0.0 0.00 0.00 0.00 1005.4
20260508085927 95 0.0 0.0 0.00 0.00 0.00 1005.1
20260508084921 96 0.0 0.0 0.00 0.00 0.00 1004.9
20260508083915 97 0.0 0.0 0.00 0.00 0.00 1004.7
20260508082908 101 0.0 0.0 0.00 0.00 0.00 1005.2
20260508081902 115 0.0 0.0 0.00 0.00 0.00 1006.6
20260508080855 107 0.0 0.0 0.00 0.00 0.00 1006.2
20260508075849 98 0.0 0.0 0.00 0.00 0.00 1005.7
20260508074842 98 0.0 0.0 0.00 0.00 0.00 1005.4
20260508073835 10 0.0 0.0 0.00 0.00 0.00 1005.4
20260508072829 99 0.0 0.0 0.00 0.00 0.00 1005.4
20260508070815 98 0.0 0.0 0.00 0.00 0.00 1005.2
20260508065809 98 0.0 0.0 0.00 0.00 0.00 1005.4
20260508064804 98 0.0 0.0 0.00 0.00 0.00 1005.4
20260508063757 98 0.0 0.0 0.00 0.00 0.00 1005.5
20260508062750 97 0.0 0.0 0.00 0.00 0.00 1005.2
20260508061744 98 0.0 0.0 0.00 0.00 0.00 1005.2
20260508060738 96 0.0 0.0 0.00 0.00 0.00 1005.4
20260508055731 96 0.0 0.0 0.00 0.00 0.00 1005.4
20260508054725 98 0.0 0.0 0.00 0.00 0.00 1005.6
20260508053718 97 0.0 0.0 0.00 0.00 0.00 1005.7
20260508052713 98 0.0 0.0 0.00 0.00 0.00 1005.9
20260508051707 97 0.0 0.0 0.00 0.00 0.00 1006.0
20260508050700 97 0.0 0.0 0.00 0.00 0.00 1006.3
20260508045654 97 0.0 0.0 0.00 0.00 0.00 1006.4
20260508044647 97 0.0 0.0 0.00 0.00 0.00 1006.5
20260508043640 97 0.0 0.0 0.00 0.00 0.00 1006.6
20260508042634 97 0.0 0.0 0.00 0.00 0.00 1006.7
20260508041627 97 0.0 0.0 0.00 0.00 0.00 1006.9
20260508040622 96 0.0 0.0 0.00 0.00 0.00 1007.0
20260508035615 95 0.0 0.0 0.00 0.00 0.00 1007.0
20260508034608 95 0.0 0.0 0.00 0.00 0.00 1007.3
20260508033601 95 0.0 0.0 0.00 0.00 0.00 1007.4
20260508032555 94 0.0 0.0 0.00 0.00 0.00 1007.6
20260508031549 94 0.0 0.0 0.00 0.00 0.00 1007.7
20260508030542 94 0.0 0.0 0.00 0.00 0.00 1007.7
20260508025536 93 0.0 0.0 0.00 0.00 0.00 1007.9
20260508023523 92 0.0 0.0 0.00 0.00 0.00 1008.0
20260508022517 92 0.0 0.0 0.00 0.00 0.00 1008.2
20260508020504 91 0.0 0.0 0.00 0.00 0.00 1008.2
20260508015457 90 0.0 0.0 0.00 0.00 0.00 1008.3
20260508014451 89 0.0 0.0 0.00 0.00 0.00 1008.5
20260508013445 88 0.0 0.0 0.00 0.00 0.00 1008.5
20260508012439 88 0.0 0.0 0.00 0.00 0.00 1008.6
20260508011434 87 0.0 0.0 0.00 0.00 0.00 1008.6
20260508010426 87 0.0 0.0 0.00 0.00 0.00 1008.6
20260508005420 86 0.0 0.0 0.00 0.00 0.00 1008.6
20260508004414 85 0.0 0.0 0.00 0.00 0.00 1008.6
20260508003408 85 0.0 0.0 0.00 0.00 0.00 1008.6
20260508002402 84 0.0 0.0 0.00 0.00 0.00 1008.6
20260508000350 83 0.0 0.0 0.00 0.00 0.00 1008.4
20260507235342 82 0.0 0.0 0.00 0.00 0.00 1008.4
20260507231317 80 0.0 0.0 0.00 0.00 0.00 1008.0
20260507230310 79 0.0 0.0 0.00 0.00 0.00 1007.9
20260507225306 79 0.0 0.0 0.00 0.00 0.00 1007.9
20260507224258 79 0.0 0.0 0.00 0.00 0.00 1007.8
20260507223251 79 0.0 0.0 0.00 0.00 0.00 1007.8
20260507222244 79 0.0 0.0 0.00 0.00 0.00 1007.7
20260507221323 79 0.0 0.0 0.00 0.00 0.00 1007.6
20260507220317 80 0.0 0.0 0.00 0.00 0.00 1007.6
20260507215311 80 0.0 0.0 0.00 0.00 0.00 1007.5
20260507214305 80 0.0 0.0 0.00 0.00 0.00 1007.4
20260507213300 80 0.0 0.0 0.00 0.00 0.00 1007.4
20260507212254 80 0.0 0.0 0.00 0.00 0.00 1007.3
20260507210241 80 0.0 0.0 0.00 0.00 0.00 1007.2
20260507205234 80 0.0 0.0 0.00 0.00 0.00 1007.3
20260507204229 80 0.0 0.0 0.00 0.00 0.00 1007.2
20260507203222 80 0.0 0.0 0.00 0.00 0.00 1007.2
20260507201209 81 0.0 0.0 0.00 0.00 0.00 1007.3
20260507200202 81 0.0 0.0 0.00 0.00 0.00 1007.3
20260507195156 81 0.0 0.0 0.00 0.00 0.00 1007.4
20260507194150 81 0.0 0.0 0.00 0.00 0.00 1007.5
20260507193143 81 0.0 0.0 0.00 0.00 0.00 1007.6
20260507192137 81 0.0 0.0 0.00 0.00 0.00 1007.7
20260507191131 81 0.0 0.0 0.00 0.00 0.00 1007.7
20260507190124 82 0.0 0.0 0.00 0.00 0.00 1007.6